Погода в Прииске Большая Речка

Россия / Забайкальский край     50°07′58″N   108°27′57″E
темп.,
°C
ветер,
м/с
пор.,
м/с
влажн.,
%
обл.,
%
осадки,
мм/ч
давл.,
гПа
погр.,
м
14 апреля, ср
ср1400:000з1156100 0.0 101510
03:00−1с2280100 0.2 101553
06:00−1ссз2396100 1.0 1015182
09:00−1с3678100 2.1 1017902
12:00−1с2564100 0.6 10171181
15:000ссз2552100 0.8 10161425
18:00+1ссз4637100 0.0 10141948
21:00−2ссз3955100 0.0 1017552
15 апреля, чт
чт1500:00−5сз1174100 0.0 101927
03:00−6зюз21793 0.0 101828
06:00−8юз23885 0.0 101855
09:00−4юз23679 0.0 1016358
12:00+1юз4642100 0.0 10121396
15:00+4з4531100 0.1 10102525
18:00+2сз574595 0.1 10111613
21:00−3зсз386931 0.8 1016485
16 апреля, пт
пт1600:00−5з378543 0.0 1021291
03:00−7зюз259126 0.0 1023205
06:00−8зюз239359 0.0 102666
09:00−4зюз256962 0.0 1026527
12:00+2зсз363557 0.0 10211723
15:00+6зсз463248 0.0 10181868
18:00+7зсз463677 0.0 10171834
21:000юз22610 0.0 101913
17 апреля, сб
сб1700:00−2юз22705 0.0 102013
03:00−3ююз11755 0.0 102010
06:00−4ю11765 0.0 101810
09:00+2юв12535 0.0 1016192
12:00+11юз25325 0.0 1010991
15:00+15зюз58250 0.0 10061895
18:00+15зюз58230 0.0 10032529
21:00+7юз11430 0.0 100412
18 апреля, вс
вс1800:00+4ююз11560 0.0 100410
03:00+2ююз11640 0.0 100510
06:00+1ююв006610 0.0 100510
09:00+5вюв1149100 0.0 1004116
12:00+14в102854 0.0 1002531
15:00+18св231957 0.0 10002371
18:00+16с432293 0.0 10002225
21:00+7ссз2362100 0.0 100865